Airfield :
LOGIN :

Register | Disclaimer

   EN    FR    IT 

 










Legend :    VFR   Marginal VFR   IFR   Intensive IFR   Very Intensive IFR
Visi :
Ceiling :
>= 8 km
>= 3000ft
5 to 8 km
1000 to 3000 ft
1500m to 5 km
500 to 1000 ft
800 to 1500m
200 to 500 ft
< 800m
< 200 ft
Symbols :   Thunderstorms  Fog  Heavy snow  Heavy precipitations  Wind > 20 kt
SIGMETs :     Misc.  Thunderstorms  Icing  Turbulence  Mountain Waves  Volcanic Ashes







- Airport Elevation : 1300 ft
- IATA code : LIG
- Download approach charts


LFBL - Limoges

CURRENT METAR :
  • 211430Z AUTO 28008KT 210V340 CAVOK 23/09 Q1016 NOSIG

EXPIRED METARs :
  • 211400Z AUTO 27007KT 220V310 CAVOK 22/09 Q1016 NOSIG
  • 211330Z AUTO 25006KT 210V310 9999 FEW045 BKN066 21/11 Q1016 NOSIG
  • 211300Z AUTO 29004KT 210V340 9999 FEW041 SCT049 OVC066 21/10 Q1016 NOSIG
  • 211230Z AUTO 23005KT 150V290 9999 FEW039 BKN066 21/11 Q1016 NOSIG
  • 211200Z AUTO 26005KT 220V290 9999 FEW036 BKN058 20/10 Q1016 NOSIG

TAF TAF LFBL
Valid from the 21 at 12:00 until the 22 at 12:00 UTC


211100Z 2112/2212 26007KT 9999 SCT040 BKN055
BECMG 2112/2114 CAVOK
ATIS : +33 5 55 48 40 37
No reported NOTAMs for that airfield.



MET'MAP, your aeronautical weather chart ! - Copyright ORBIFLY December 2007 - Disclaimer

ORBIFLY MET'MAP TEAM :

Programming & Development : Alexandra Zaïnal
Concept & Development : Baudouin d'Aumeries
Co-Development & Prog : Marc-Olivier Méhu
Technical & hardware support : Manuel Goepfert

Contact : metmap@orbifly.com




SOURCES & CREDITS :

   NOAA